FW0019 Weather Reports


Display with metric or nautical units.
time (UTC)temp
F
wind
direction
speed
MPH
gust
MPH
rain 1hr
in
rain 24hr
in
rain mn
in
humidity
%
barometer
mb
20260903110046 58 108 4.0 9.0 0.00 0.00 0.00 20 878.2
20260903104542 58 119 3.0 10.0 0.00 0.00 0.00 21 878.3
20260903103038 58 132 4.0 14.0 0.00 0.00 0.00 18 878.3
20260903101531 58 119 3.0 10.0 0.00 0.00 0.00 16 878.5
20260903100029 59 111 7.0 10.0 0.00 0.00 0.00 13 878.5
20260903094532 60 121 6.0 13.0 0.00 0.00 0.00 12 878.5
20260903093020 60 114 7.0 12.0 0.00 0.00 0.00 10 878.6
20260903091514 60 82 9.0 13.0 0.00 0.00 0.00 10 878.7
20260903090016 60 108 8.0 17.0 0.00 0.00 0.00 8 878.8
20260903084506 60 106 8.0 17.0 0.00 0.00 0.00 7 878.9
20260903083001 60 102 8.0 13.0 0.00 0.00 0.00 8 879.2
20260903081613 59 117 6.0 12.0 0.00 0.00 0.00 8 879.3
20260903080052 59 111 6.0 14.0 0.00 0.00 0.00 7 879.4
20260903074555 58 95 5.0 10.0 0.00 0.00 0.00 9 879.5
20260903073055 58 93 3.0 8.0 0.00 0.00 0.00 18 879.5
20260903071558 58 98 3.0 8.0 0.00 0.00 0.00 17 879.4
20260903070041 59 120 2.0 9.0 0.00 0.00 0.00 13 879.4
20260903064540 61 117 3.0 11.0 0.00 0.00 0.00 11 879.3
20260903063046 61 85 7.0 12.0 0.00 0.00 0.00 10 879.2
20260903061540 62 113 8.0 15.0 0.00 0.00 0.00 12 879.1
20260903060108 62 115 7.0 15.0 0.00 0.00 0.00 11 879.1
20260903054537 62 115 9.0 14.0 0.00 0.00 0.00 12 879.2
20260903053035 62 111 9.0 15.0 0.00 0.00 0.00 10 879.4
20260903051535 62 102 7.0 16.0 0.00 0.00 0.00 11 879.4
20260903050034 62 105 7.0 14.0 0.00 0.00 0.00 11 879.6
20260903044536 62 107 7.0 15.0 0.00 0.00 0.00 11 879.7
20260903043032 63 98 6.0 10.0 0.00 0.00 0.00 11 879.6
20260903041532 63 92 7.0 14.0 0.00 0.00 0.00 10 879.6
20260903040049 63 111 7.0 15.0 0.00 0.00 0.00 11 879.6
20260903034532 62 79 6.0 12.0 0.00 0.00 0.00 13 879.4
20260903033032 60 103 3.0 12.0 0.00 0.00 0.00 23 879.4
20260903031531 58 112 4.0 8.0 0.00 0.00 0.00 63 879.3
20260903030024 58 105 3.0 9.0 0.00 0.00 0.00 60 879.2
20260903024523 59 113 3.0 9.0 0.00 0.00 0.00 63 879.2
20260903023035 60 79 4.0 9.0 0.00 0.00 0.00 62 879.2
20260903021521 61 121 4.0 12.0 0.00 0.00 0.00 61 879.1
20260903020019 63 105 7.0 11.0 0.00 0.00 0.00 58 879.1
20260903014517 64 90 8.0 16.0 0.00 0.00 0.00 54 879.0
20260903013014 66 117 6.0 12.0 0.00 0.00 0.00 49 879.2
20260903011513 67 130 9.0 15.0 0.00 0.00 0.00 45 879.3
20260903010034 68 119 5.0 14.0 0.00 0.00 0.00 42 879.3
20260903004511 69 103 8.0 16.0 0.00 0.00 0.00 41 879.3
20260903003010 71 134 8.0 17.0 0.00 0.00 0.00 38 879.2
20260903001512 71 133 9.0 18.0 0.00 0.00 0.00 36 879.4
20260903000007 72 140 9.0 17.0 0.00 0.00 0.00 33 879.4
20260902234506 73 152 9.0 20.0 0.00 0.00 0.00 33 879.4
20260902233004 74 175 11.0 18.0 0.00 0.00 0.00 31 879.5
20260902231504 74 144 9.0 22.0 0.00 0.00 0.00 30 879.6
20260902230003 74 125 9.0 22.0 0.00 0.00 0.00 32 879.9
20260902224502 75 98 10.0 18.0 0.00 0.00 0.00 29 879.9
20260902223004 76 127 7.0 22.0 0.00 0.00 0.00 27 880.0
20260902221600 76 161 5.0 23.0 0.00 0.00 0.00 26 880.0
20260902220104 76 120 11.0 22.0 0.00 0.00 0.00 23 880.3
20260902214605 76 107 13.0 22.0 0.00 0.00 0.00 20 880.2
20260902213056 76 165 11.0 23.0 0.00 0.00 0.00 20 880.3
20260902211556 77 144 15.0 22.0 0.00 0.00 0.00 19 880.3
20260902210056 76 140 11.0 19.0 0.00 0.00 0.00 19 880.5
20260902204555 76 128 11.0 23.0 0.00 0.00 0.00 20 880.6
20260902203053 76 144 10.0 17.0 0.00 0.00 0.00 20 880.7
20260902201553 76 157 9.0 21.0 0.00 0.00 0.00 21 880.8
20260902200052 76 134 8.0 21.0 0.00 0.00 0.00 22 880.8
20260902194550 75 137 13.0 22.0 0.00 0.00 0.00 21 881.0
20260902193049 75 171 10.0 20.0 0.00 0.00 0.00 19 881.0
20260902191550 74 125 9.0 17.0 0.00 0.00 0.00 19 881.2
20260902190047 75 147 8.0 18.0 0.00 0.00 0.00 19 881.1
20260902184546 74 142 8.0 22.0 0.00 0.00 0.00 18 881.2
20260902183043 73 136 11.0 22.0 0.00 0.00 0.00 19 881.3
20260902181547 73 162 10.0 21.0 0.00 0.00 0.00 17 881.2
20260902180052 73 117 10.0 22.0 0.00 0.00 0.00 17 881.1
20260902174538 72 121 10.0 18.0 0.00 0.00 0.00 18 881.2
20260902173036 71 97 9.0 22.0 0.00 0.00 0.00 18 881.2
20260902171538 71 115 10.0 18.0 0.00 0.00 0.00 18 881.0
20260902170031 70 140 8.0 18.0 0.00 0.00 0.00 18 881.0
20260902164528 70 143 8.0 18.0 0.00 0.00 0.00 19 880.9
20260902163023 69 136 8.0 16.0 0.00 0.00 0.00 20 880.8
20260902161535 69 130 10.0 15.0 0.00 0.00 0.00 19 880.7
20260902160036 68 132 7.0 16.0 0.00 0.00 0.00 19 880.8
20260902154532 67 142 7.0 14.0 0.00 0.00 0.00 19 880.6
20260902153139 67 117 6.0 16.0 0.00 0.00 0.00 20 880.6
20260902151514 66 106 8.0 13.0 0.00 0.00 0.00 21 880.4
20260902143017 63 113 5.0 11.0 0.00 0.00 0.00 23 880.5
20260902141524 62 114 7.0 13.0 0.00 0.00 0.00 23 880.5
20260902133046 60 125 6.0 11.0 0.00 0.00 0.00 24 880.0
20260902131544 60 87 5.0 9.0 0.00 0.00 0.00 24 879.9
20260902130044 60 123 3.0 9.0 0.00 0.00 0.00 25 879.8
20260902124542 60 94 5.0 10.0 0.00 0.00 0.00 25 879.8
20260902123044 60 83 5.0 9.0 0.00 0.00 0.00 27 879.8
20260902121540 61 94 5.0 11.0 0.00 0.00 0.00 34 879.7
20260902120041 62 86 6.0 12.0 0.00 0.00 0.00 37 879.8
20260902114603 62 60 6.0 14.0 0.00 0.00 0.00 37 879.8
20260902113052 62 97 6.0 12.0 0.00 0.00 0.00 36 879.8
20260902111535 62 127 6.0 16.0 0.00 0.00 0.00 31 879.8